Accueil
METAR-TAF:

METAR-TAF

Aéroports :

Nakashibetsu, Japon

latitude: 43-34N, longitude: 144-58E, altitude: 66 m

Observation

Le bulletin a été fait il y a 35 minutes, à 09:00 UTC
Vent 1 kt de direction variable
Température 10°C
Humidité 87%
Pression 1010 hPa
Visibilité 10 km ou plus
Quelques nuages à une hauteur de 2500 ft
Nuages épars à une hauteur de 3500 ft

METAR: RJCN 160900Z VRB01KT 9999 FEW025 SCT035 10/08 Q1010

Heure: 18:35 (09:35 UTC)


TAF: absent

Observations et prévisions météorologiques de plus de 4000 aéroports (messages METAR et TAF).

Les stations disponibles sont représentées par des disques jaunes et rouges sur la carte.

Passer la souris dessus pour voir le nom de la station.

Cliquer dessus pour voir les observations et prévisions météorologiques.

Pour changer de carte: cliquez sur les boutons verts avec une croix noire pour zoomer, sur le bouton vert avec un tiret pour effectuer un zoom arrière, ou sur les flèches vertes pour les cartes adjacentes.


METAR-TAF: